Weather in Dzhamku

Russia / Khabarovsk Krai     51°07′15″N   134°38′40″E
temp.,
°C
wind,
m/s
gust,
m/s
humid.,
%
clouds,
%
prec.,
mm/h
press.,
hPa
HPBL,
m
21 january, fri
fri2101:00−26s219536 0.0 103311
04:00−27s219553 0.0 103411
07:00−28s219634 0.0 103410
10:00−25ssw129534 0.0 103438
13:00−18w22814 0.0 1030233
16:00−16wsw12803 0.0 1028212
19:00−24sse21965 0.0 103210
22:00−26sse219521 0.0 103310
22 january, sat
sat2201:00−27s21955 0.0 103310
04:00−28s219520 0.0 103310
07:00−28s219520 0.0 10339
10:00−25ssw12913 0.0 103339
13:00−17w22792 0.0 1029196
16:00−15wsw12802 0.0 1027180
19:00−23sse22965 0.0 103011
22:00−24sse219535 0.0 103010
23 january, sun
sun2301:00−26s219636 0.0 103010
04:00−27s219636 0.0 103010
07:00−28s219521 0.0 10309
10:00−25ssw11913 0.0 102936
13:00−18w12765 0.0 1026203
16:00−15wsw12765 0.0 1023210
19:00−23s22955 0.0 102612
22:00−25s219422 0.0 102710
24 january, mon
mon2401:00−27s21954 0.0 102710
04:00−27s21944 0.0 102711
07:00−27s21944 0.0 102713
10:00−23sw129119 0.0 102554
13:00−16wsw23793 0.0 1022238
16:00−15wsw23835 0.0 1021218
19:00−23sse21975 0.0 102410
22:00−25sse219634 0.0 102511
25 january, tue
tue2501:00−26s219631 0.0 102610
04:00−27sse219526 0.0 10269
07:00−27sse219536 0.0 10269
10:00−24ssw119231 0.0 102538
13:00−17w11814 0.0 1022191
16:00−14w11794 0.0 1020185
19:00−22sse21975 0.0 102310
22:00−24sse21975 0.0 10249